• In Uzbekistan
  • List of Countries
  • For 7 days
  • Water Temperature
  • Satellite Maps
  • Weather Map
  • Weather Widgets
  • user-avatar
    Login

    Hourly Weather Telavi

    Today, 20 June, Wednesday

    Time Temperature Precipitation Wind Pressure Humidity
    00:00 +19°C° 0 mm 1 mps 708 mmHg 57%
    01:00 +19°C° 0 mm 1 mps 708 mmHg 58%
    02:00 +18°C° 0 mm 1 mps 707 mmHg 59%
    03:00 +18°C° 0 mm 1 mps 707 mmHg 62%
    04:00 +19°C° 0.1 mm 1 mps 707 mmHg 61%
    05:00 +19°C° 0.1 mm 1 mps 707 mmHg 60%
    06:00 +20°C° 0.1 mm 1 mps 708 mmHg 59%
    07:00 +21°C° 0.1 mm 1 mps 708 mmHg 56%
    08:00 +23°C° 0.1 mm 1 mps 708 mmHg 52%
    09:00 +23°C° 0 mm 2 mps 708 mmHg 52%
    10:00 +25°C° 0.2 mm 1 mps 708 mmHg 50%
    11:00 +26°C° 0.2 mm 1 mps 708 mmHg 48%
    12:00 +27°C° 0.2 mm 1 mps 708 mmHg 46%
    13:00 +28°C° 0 mm 1 mps 708 mmHg 44%
    14:00 +28°C° 0 mm 1 mps 708 mmHg 42%
    15:00 +28°C° 0 mm 1 mps 708 mmHg 42%
    16:00 +28°C° 0 mm 1 mps 709 mmHg 44%
    17:00 +27°C° 0 mm 1 mps 709 mmHg 47%
    18:00 +27°C° 0 mm 1 mps 709 mmHg 49%
    19:00 +25°C° 0.1 mm 1 mps 709 mmHg 55%
    20:00 +23°C° 0.1 mm 1 mps 709 mmHg 60%
    21:00 +21°C° 0.1 mm 1 mps 709 mmHg 66%
    22:00 +21°C° 0 mm 1 mps 710 mmHg 67%
    23:00 +20°C° 0 mm 1 mps 710 mmHg 69%

    Tomorrow, 21 June, Thursday

    Time Temperature Precipitation Wind Pressure Humidity
    00:00 +20°C° 0 mm 1 mps 710 mmHg 70%
    01:00 +19°C° 0 mm 1 mps 710 mmHg 71%
    02:00 +19°C° 0 mm 1 mps 710 mmHg 71%
    03:00 +19°C° 0 mm 1 mps 710 mmHg 71%
    04:00 +20°C° 0 mm 1 mps 710 mmHg 69%
    05:00 +20°C° 0 mm 1 mps 710 mmHg 67%
    06:00 +21°C° 0 mm 1 mps 710 mmHg 65%
    07:00 +23°C° 0 mm 1 mps 710 mmHg 59%
    08:00 +25°C° 0 mm 1 mps 710 mmHg 53%
    09:00 +27°C° 0 mm 1 mps 710 mmHg 47%
    10:00 +28°C° 0 mm 1 mps 710 mmHg 44%
    11:00 +29°C° 0 mm 2 mps 709 mmHg 41%
    12:00 +30°C° 0 mm 2 mps 709 mmHg 37%
    13:00 +31°C° 0 mm 2 mps 709 mmHg 36%
    14:00 +31°C° 0 mm 3 mps 709 mmHg 34%
    15:00 +33°C° 0 mm 3 mps 709 mmHg 32%
    16:00 +31°C° 0 mm 3 mps 708 mmHg 34%
    17:00 +31°C° 0 mm 3 mps 708 mmHg 36%
    18:00 +30°C° 0 mm 3 mps 708 mmHg 38%
    19:00 +28°C° 0 mm 2 mps 708 mmHg 43%
    20:00 +25°C° 0 mm 2 mps 709 mmHg 48%
    21:00 +23°C° 0 mm 2 mps 709 mmHg 53%
    22:00 +21°C° 0 mm 2 mps 709 mmHg 55%
    23:00 +21°C° 0 mm 2 mps 709 mmHg 56%

    Day after tomorrow, 22 June, Friday

    Time Temperature Precipitation Wind Pressure Humidity
    00:00 +20°C° 0 mm 2 mps 709 mmHg 57%
    01:00 +19°C° 0 mm 2 mps 708 mmHg 59%
    02:00 +19°C° 0 mm 2 mps 708 mmHg 60%
    03:00 +18°C° 0 mm 2 mps 708 mmHg 62%
    04:00 +20°C° 0 mm 1 mps 708 mmHg 61%
    05:00 +20°C° 0 mm 1 mps 708 mmHg 59%
    06:00 +21°C° 0 mm 1 mps 708 mmHg 58%
    07:00 +23°C° 0 mm 1 mps 708 mmHg 52%
    08:00 +25°C° 0 mm 1 mps 708 mmHg 45%
    09:00 +27°C° 0 mm 1 mps 708 mmHg 39%
    10:00 +28°C° 0 mm 2 mps 707 mmHg 36%
    11:00 +30°C° 0 mm 3 mps 707 mmHg 33%
    12:00 +31°C° 0 mm 3 mps 707 mmHg 30%
    13:00 +32°C° 0 mm 4 mps 706 mmHg 29%
    14:00 +33°C° 0 mm 4 mps 706 mmHg 28%
    15:00 +33°C° 0 mm 4 mps 706 mmHg 27%
    16:00 +32°C° 0 mm 4 mps 705 mmHg 29%
    17:00 +31°C° 0 mm 3 mps 705 mmHg 30%
    18:00 +30°C° 0 mm 3 mps 705 mmHg 32%
    19:00 +28°C° 0 mm 3 mps 705 mmHg 34%
    20:00 +25°C° 0 mm 3 mps 706 mmHg 37%
    21:00 +22°C° 0 mm 3 mps 706 mmHg 40%
    22:00 +21°C° 0 mm 2 mps 706 mmHg 40%
    23:00 +20°C° 0 mm 2 mps 705 mmHg 40%

    23 June, Saturday

    Time Temperature Precipitation Wind Pressure Humidity
    00:00 +20°C° 0 mm 2 mps 705 mmHg 41%
    01:00 +19°C° 0 mm 2 mps 705 mmHg 43%
    02:00 +19°C° 0 mm 2 mps 705 mmHg 46%
    03:00 +18°C° 0 mm 2 mps 705 mmHg 48%
    04:00 +19°C° 0 mm 2 mps 705 mmHg 48%
    05:00 +19°C° 0 mm 2 mps 705 mmHg 49%
    06:00 +21°C° 0 mm 1 mps 705 mmHg 49%
    07:00 +23°C° 0 mm 1 mps 705 mmHg 43%
    08:00 +25°C° 0 mm 1 mps 705 mmHg 37%
    09:00 +28°C° 0 mm 1 mps 705 mmHg 31%
    10:00 +29°C° 0 mm 1 mps 705 mmHg 29%
    11:00 +30°C° 0 mm 2 mps 705 mmHg 27%
    12:00 +31°C° 0 mm 2 mps 705 mmHg 25%
    13:00 +31°C° 0 mm 2 mps 705 mmHg 25%
    14:00 +32°C° 0 mm 2 mps 705 mmHg 24%
    15:00 +32°C° 0 mm 2 mps 705 mmHg 24%
    16:00 +32°C° 0 mm 2 mps 705 mmHg 26%
    17:00 +31°C° 0 mm 2 mps 705 mmHg 27%
    18:00 +30°C° 0 mm 2 mps 705 mmHg 29%
    19:00 +28°C° 0 mm 2 mps 705 mmHg 33%
    20:00 +26°C° 0 mm 2 mps 706 mmHg 36%
    21:00 +24°C° 0 mm 2 mps 706 mmHg 39%
    22:00 +23°C° 0 mm 2 mps 706 mmHg 42%
    23:00 +21°C° 0 mm 2 mps 706 mmHg 45%

    24 June, Sunday

    Time Temperature Precipitation Wind Pressure Humidity
    00:00 +21°C° 0 mm 2 mps 706 mmHg 49%
    01:00 +20°C° 0 mm 2 mps 706 mmHg 50%
    02:00 +20°C° 0 mm 2 mps 706 mmHg 52%
    03:00 +19°C° 0 mm 2 mps 706 mmHg 53%
    04:00 +20°C° 0 mm 2 mps 706 mmHg 53%
    05:00 +20°C° 0 mm 2 mps 707 mmHg 54%
    06:00 +21°C° 0 mm 2 mps 707 mmHg 54%
    07:00 +24°C° 0 mm 2 mps 707 mmHg 49%
    08:00 +26°C° 0 mm 2 mps 707 mmHg 44%
    09:00 +29°C° 0 mm 2 mps 707 mmHg 39%
    10:00 +30°C° 0 mm 2 mps 707 mmHg 36%
    11:00 +32°C° 0 mm 2 mps 707 mmHg 32%
    12:00 +34°C° 0 mm 2 mps 707 mmHg 29%
    13:00 +35°C° 0 mm 2 mps 707 mmHg 28%
    14:00 +35°C° 0 mm 1 mps 707 mmHg 27%
    15:00 +36°C° 0 mm 1 mps 707 mmHg 26%
    16:00 +34°C° 0 mm 1 mps 707 mmHg 28%
    17:00 +34°C° 0 mm 2 mps 707 mmHg 31%
    18:00 +32°C° 0 mm 2 mps 707 mmHg 33%
    19:00 +30°C° 0.2 mm 2 mps 707 mmHg 39%
    20:00 +28°C° 0.2 mm 2 mps 708 mmHg 44%
    21:00 +25°C° 0.2 mm 2 mps 708 mmHg 50%
    22:00 +24°C° 0.3 mm 2 mps 708 mmHg 53%
    23:00 +23°C° 0.3 mm 2 mps 708 mmHg 56%

    25 June, Monday

    Time Temperature Precipitation Wind Pressure Humidity
    00:00 +23°C° 0.3 mm 2 mps 708 mmHg 58%
    01:00 +21°C° 0.1 mm 2 mps 708 mmHg 60%
    02:00 +21°C° 0.1 mm 2 mps 708 mmHg 62%
    03:00 +20°C° 0.1 mm 2 mps 708 mmHg 63%
    04:00 +21°C° 0.1 mm 2 mps 708 mmHg 62%
    05:00 +21°C° 0.1 mm 2 mps 708 mmHg 61%
    06:00 +23°C° 0.1 mm 2 mps 709 mmHg 60%
    07:00 +25°C° 0 mm 2 mps 709 mmHg 52%
    08:00 +28°C° 0 mm 1 mps 709 mmHg 44%
    09:00 +30°C° 0 mm 1 mps 709 mmHg 36%
    10:00 +31°C° 0 mm 1 mps 709 mmHg 33%
    11:00 +34°C° 0 mm 2 mps 709 mmHg 30%
    12:00 +35°C° 0 mm 2 mps 709 mmHg 27%
    13:00 +35°C° 0 mm 2 mps 709 mmHg 26%
    14:00 +36°C° 0 mm 2 mps 708 mmHg 25%
    15:00 +36°C° 0 mm 3 mps 708 mmHg 24%
    16:00 +36°C° 0 mm 3 mps 708 mmHg 25%
    17:00 +35°C° 0 mm 3 mps 708 mmHg 27%
    18:00 +34°C° 0 mm 3 mps 709 mmHg 28%
    19:00 +31°C° 0 mm 2 mps 709 mmHg 32%
    20:00 +28°C° 0 mm 2 mps 709 mmHg 35%
    21:00 +26°C° 0 mm 2 mps 709 mmHg 38%
    22:00 +25°C° 0 mm 2 mps 709 mmHg 39%
    23:00 +24°C° 0 mm 2 mps 709 mmHg 41%
    Show more